SWA4025 KSAN-KMDW

Flight info

Callsign SWA4025
Flight time 3h 32m
Altitude 37000
Route ZZOOO4 TGOLD PXR KENTO KK51C IRK ENDEE8
Aircraft B738/M-SADE2E3GIJ4RWZ/LB1D1

Departure

Time 2026-05-06 16:28
Airport San Diego International Airport (KSAN)

Arrival

Time 2026-05-06 20:01
Airport Chicago Midway International Airport (KMDW)
Time Latitude Longitude Altitude Speed Heading
2026-05-06 15:35 32.73373 -117.19898 19 ft 0 kts 149°
2026-05-06 16:18 32.73379 -117.19903 20 ft 3 kts 149°
2026-05-06 16:18 32.73395 -117.19914 23 ft 3 kts 149°
2026-05-06 16:19 32.73410 -117.19925 21 ft 3 kts 149°
2026-05-06 16:19 32.73425 -117.19935 21 ft 2 kts 149°
2026-05-06 16:19 32.73439 -117.19944 22 ft 0 kts 149°
2026-05-06 16:22 32.73429 -117.19934 21 ft 4 kts 127°
2026-05-06 16:22 32.73435 -117.19897 23 ft 5 kts 63°
2026-05-06 16:23 32.73449 -117.19861 25 ft 5 kts 68°
2026-05-06 16:23 32.73457 -117.19810 23 ft 8 kts 91°
2026-05-06 16:23 32.73441 -117.19727 22 ft 12 kts 104°
2026-05-06 16:23 32.73415 -117.19613 24 ft 16 kts 107°
2026-05-06 16:24 32.73380 -117.19477 24 ft 19 kts 107°
2026-05-06 16:24 32.73339 -117.19310 19 ft 23 kts 106°
2026-05-06 16:24 32.73294 -117.19119 21 ft 24 kts 106°
2026-05-06 16:24 32.73249 -117.18934 21 ft 23 kts 107°
2026-05-06 16:25 32.73205 -117.18756 26 ft 22 kts 106°
2026-05-06 16:25 32.73162 -117.18585 22 ft 22 kts 106°
2026-05-06 16:25 32.73121 -117.18417 21 ft 21 kts 106°
2026-05-06 16:25 32.73082 -117.18254 22 ft 20 kts 105°
2026-05-06 16:26 32.73044 -117.18099 18 ft 17 kts 107°
2026-05-06 16:26 32.73009 -117.17964 18 ft 17 kts 107°
2026-05-06 16:26 32.72977 -117.17834 17 ft 16 kts 105°
2026-05-06 16:26 32.72950 -117.17708 16 ft 14 kts 96°
2026-05-06 16:27 32.72979 -117.17600 21 ft 14 kts 53°
2026-05-06 16:27 32.73021 -117.17586 21 ft 5 kts 302°
2026-05-06 16:27 32.73030 -117.17615 19 ft 0 kts 284°
2026-05-06 16:27 32.73032 -117.17623 19 ft 4 kts 284°
2026-05-06 16:28 32.73085 -117.17843 17 ft 64 kts 285°
2026-05-06 16:28 32.73274 -117.18632 24 ft 132 kts 286°
2026-05-06 16:28 32.73468 -117.19424 49 ft 166 kts 287°
2026-05-06 16:28 32.73797 -117.20740 819 ft 163 kts 287°
2026-05-06 16:29 32.74106 -117.22079 1471 ft 175 kts 285°
2026-05-06 16:29 32.74459 -117.23584 1719 ft 203 kts 286°
2026-05-06 16:29 32.74865 -117.25245 2121 ft 213 kts 286°
2026-05-06 16:29 32.75283 -117.26958 2664 ft 219 kts 287°
2026-05-06 16:30 32.75705 -117.28693 3377 ft 218 kts 288°
2026-05-06 16:30 32.75989 -117.29862 3704 ft 227 kts 288°
2026-05-06 16:30 32.76517 -117.32377 4392 ft 242 kts 274°
2026-05-06 16:30 32.76149 -117.34316 5059 ft 251 kts 242°
2026-05-06 16:31 32.74963 -117.35862 5876 ft 260 kts 213°
2026-05-06 16:31 32.73264 -117.36563 6755 ft 261 kts 182°
2026-05-06 16:31 32.71494 -117.36171 7565 ft 260 kts 149°
2026-05-06 16:31 32.70136 -117.34797 8404 ft 256 kts 126°
2026-05-06 16:32 32.69005 -117.33146 9291 ft 258 kts 124°
2026-05-06 16:32 32.67881 -117.31471 10166 ft 260 kts 123°
2026-05-06 16:32 32.66739 -117.29790 10981 ft 264 kts 124°
2026-05-06 16:32 32.65562 -117.28075 11710 ft 270 kts 124°
2026-05-06 16:33 32.64358 -117.26333 12463 ft 275 kts 124°
2026-05-06 16:33 32.63273 -117.24466 13176 ft 274 kts 106°
2026-05-06 16:33 32.62869 -117.22223 13533 ft 289 kts 92°
2026-05-06 16:34 32.62457 -117.17085 13980 ft 335 kts 92°
2026-05-06 16:34 32.62218 -117.14322 14496 ft 345 kts 92°
2026-05-06 16:34 32.61995 -117.11481 15236 ft 345 kts 87°
2026-05-06 16:34 32.62368 -117.08704 15998 ft 341 kts 69°
2026-05-06 16:35 32.63220 -117.06076 16783 ft 341 kts 65°
2026-05-06 16:35 32.64121 -117.03450 17494 ft 344 kts 65°
2026-05-06 16:35 32.65014 -117.00797 18215 ft 348 kts 65°
2026-05-06 16:35 32.65899 -116.98115 18884 ft 350 kts 65°
2026-05-06 16:36 32.66654 -116.95347 19516 ft 357 kts 76°
2026-05-06 16:36 32.66807 -116.92408 20151 ft 363 kts 84°
2026-05-06 16:36 32.66842 -116.89405 20774 ft 366 kts 84°
2026-05-06 16:36 32.66880 -116.86379 21381 ft 368 kts 84°
2026-05-06 16:37 32.66933 -116.83336 22007 ft 370 kts 84°
2026-05-06 16:37 32.67000 -116.80265 22562 ft 374 kts 83°
2026-05-06 16:37 32.67071 -116.77172 23143 ft 376 kts 83°
2026-05-06 16:37 32.67134 -116.74047 23726 ft 379 kts 84°
2026-05-06 16:38 32.67111 -116.70899 24207 ft 383 kts 86°
2026-05-06 16:38 32.67047 -116.67728 24685 ft 385 kts 86°
2026-05-06 16:38 32.66976 -116.64544 25150 ft 387 kts 86°
2026-05-06 16:38 32.66908 -116.61346 25586 ft 389 kts 86°
2026-05-06 16:39 32.66848 -116.58127 26018 ft 392 kts 86°
2026-05-06 16:39 32.66792 -116.54912 26504 ft 394 kts 86°
2026-05-06 16:39 32.66736 -116.51651 26975 ft 395 kts 86°
2026-05-06 16:39 32.66682 -116.48379 27417 ft 397 kts 86°
2026-05-06 16:40 32.66626 -116.45091 27801 ft 400 kts 86°
2026-05-06 16:40 32.66591 -116.41778 28194 ft 402 kts 84°
2026-05-06 16:40 32.66782 -116.38474 28590 ft 402 kts 79°
2026-05-06 16:40 32.67106 -116.35173 28998 ft 403 kts 78°
2026-05-06 16:41 32.67462 -116.31868 29367 ft 405 kts 78°
2026-05-06 16:41 32.67811 -116.28537 29722 ft 408 kts 79°
2026-05-06 16:41 32.68143 -116.25181 30083 ft 411 kts 79°
2026-05-06 16:41 32.68461 -116.21801 30362 ft 414 kts 80°
2026-05-06 16:42 32.68771 -116.18390 30623 ft 417 kts 80°
2026-05-06 16:42 32.69077 -116.14957 30920 ft 418 kts 80°
2026-05-06 16:42 32.69382 -116.11516 31291 ft 419 kts 80°
2026-05-06 16:42 32.69683 -116.08122 31641 ft 419 kts 80°
2026-05-06 16:43 32.69989 -116.04668 31968 ft 420 kts 80°
2026-05-06 16:43 32.70298 -116.01215 32296 ft 421 kts 80°
2026-05-06 16:43 32.70615 -115.97764 32634 ft 421 kts 80°
2026-05-06 16:43 32.70938 -115.94296 32973 ft 421 kts 80°
2026-05-06 16:44 32.71262 -115.90827 33254 ft 423 kts 80°
2026-05-06 16:44 32.71581 -115.87388 33540 ft 424 kts 80°
2026-05-06 16:44 32.71904 -115.83884 33884 ft 424 kts 80°
2026-05-06 16:44 32.72222 -115.80404 34191 ft 424 kts 81°
2026-05-06 16:45 32.72541 -115.76911 34411 ft 426 kts 81°
2026-05-06 16:45 32.72860 -115.73407 34606 ft 428 kts 81°
2026-05-06 16:45 32.73175 -115.69930 34844 ft 429 kts 81°
2026-05-06 16:45 32.73496 -115.66386 34949 ft 434 kts 82°
2026-05-06 16:46 32.73819 -115.62802 35041 ft 438 kts 82°
2026-05-06 16:46 32.74143 -115.59193 35206 ft 440 kts 82°
2026-05-06 16:46 32.74467 -115.55570 35458 ft 441 kts 82°
2026-05-06 16:46 32.74790 -115.51947 35690 ft 442 kts 82°
2026-05-06 16:47 32.75045 -115.48304 35865 ft 444 kts 85°
2026-05-06 16:47 32.75168 -115.44623 36059 ft 446 kts 87°
2026-05-06 16:47 32.75232 -115.40935 36285 ft 447 kts 88°
2026-05-06 16:47 32.75282 -115.37237 36496 ft 448 kts 88°
2026-05-06 16:48 32.75337 -115.33533 36678 ft 449 kts 88°
2026-05-06 16:48 32.75403 -115.29808 36798 ft 453 kts 88°
2026-05-06 16:48 32.75479 -115.26042 36846 ft 458 kts 88°
2026-05-06 16:48 32.75559 -115.22309 37066 ft 458 kts 88°
2026-05-06 16:49 32.75644 -115.18511 37063 ft 462 kts 88°
2026-05-06 16:49 32.75814 -115.10869 37065 ft 461 kts 88°
2026-05-06 16:50 32.75977 -115.03305 37065 ft 454 kts 88°
2026-05-06 16:50 32.76133 -114.95802 37059 ft 453 kts 89°
2026-05-06 16:51 32.76283 -114.88360 37059 ft 453 kts 89°
2026-05-06 16:51 32.76430 -114.80879 37064 ft 452 kts 89°
2026-05-06 16:52 32.76572 -114.73405 37062 ft 452 kts 89°
2026-05-06 16:52 32.76710 -114.65931 37063 ft 453 kts 89°
2026-05-06 16:53 32.76841 -114.58493 37066 ft 453 kts 89°
2026-05-06 16:53 32.76949 -114.50991 37053 ft 454 kts 89°
2026-05-06 16:54 32.77048 -114.43481 37053 ft 455 kts 89°
2026-05-06 16:54 32.77145 -114.35964 36987 ft 456 kts 89°
2026-05-06 16:55 32.77240 -114.28410 36991 ft 458 kts 90°
2026-05-06 16:55 32.77330 -114.20871 37009 ft 461 kts 90°
2026-05-06 16:56 32.77418 -114.13220 37013 ft 465 kts 90°
2026-05-06 16:56 32.77501 -114.05517 37013 ft 468 kts 90°
2026-05-06 16:57 32.77581 -113.97745 37025 ft 470 kts 90°
2026-05-06 16:57 32.78396 -113.90017 37031 ft 473 kts 80°
2026-05-06 16:58 32.79685 -113.82331 37025 ft 474 kts 80°
2026-05-06 16:58 32.80835 -113.74658 37030 ft 474 kts 81°
2026-05-06 16:59 32.82069 -113.66955 37022 ft 475 kts 73°
2026-05-06 16:59 32.84377 -113.59606 37042 ft 475 kts 68°
2026-05-06 17:00 32.86884 -113.52334 37045 ft 475 kts 68°
2026-05-06 17:00 32.89312 -113.45023 37047 ft 475 kts 69°
2026-05-06 17:01 32.91660 -113.37723 37044 ft 475 kts 70°
2026-05-06 17:01 32.94007 -113.30350 37046 ft 476 kts 70°
2026-05-06 17:02 32.96350 -113.22979 37045 ft 477 kts 70°
2026-05-06 17:02 32.98696 -113.15592 37044 ft 477 kts 70°
2026-05-06 17:03 33.01041 -113.08194 37033 ft 478 kts 70°
2026-05-06 17:03 33.03388 -113.00772 37062 ft 479 kts 70°
2026-05-06 17:04 33.05739 -112.93318 37057 ft 481 kts 70°
2026-05-06 17:04 33.08077 -112.85890 37042 ft 481 kts 70°
2026-05-06 17:05 33.10426 -112.78406 37043 ft 481 kts 70°
2026-05-06 17:05 33.12791 -112.70930 37043 ft 480 kts 68°
2026-05-06 17:06 33.15655 -112.63750 37063 ft 479 kts 63°
2026-05-06 17:06 33.18723 -112.56687 37055 ft 479 kts 63°
2026-05-06 17:07 33.21722 -112.49620 37055 ft 479 kts 63°
2026-05-06 17:07 33.24682 -112.42476 37062 ft 479 kts 64°
2026-05-06 17:08 33.27621 -112.35326 37073 ft 480 kts 64°
2026-05-06 17:08 33.30561 -112.28166 37070 ft 480 kts 64°
2026-05-06 17:09 33.33502 -112.20996 37067 ft 481 kts 64°
2026-05-06 17:09 33.36429 -112.13847 37055 ft 482 kts 64°
2026-05-06 17:10 33.39378 -112.06627 37053 ft 484 kts 64°
2026-05-06 17:10 33.42337 -111.99370 37064 ft 486 kts 64°
2026-05-06 17:11 33.45339 -111.92100 37062 ft 488 kts 63°
2026-05-06 17:11 33.48435 -111.84830 37076 ft 490 kts 63°
2026-05-06 17:12 33.51546 -111.77536 37079 ft 492 kts 63°
2026-05-06 17:12 33.54648 -111.70215 37080 ft 488 kts 63°
2026-05-06 17:13 33.57676 -111.63030 37050 ft 479 kts 63°
2026-05-06 17:13 33.60679 -111.55888 37024 ft 480 kts 63°
2026-05-06 17:14 33.63678 -111.48739 37023 ft 480 kts 63°
2026-05-06 17:14 33.66682 -111.41566 37022 ft 481 kts 63°
2026-05-06 17:15 33.69665 -111.34429 37022 ft 482 kts 63°
2026-05-06 17:15 33.72674 -111.27215 37016 ft 482 kts 63°
2026-05-06 17:16 33.75678 -111.19997 37026 ft 483 kts 63°
2026-05-06 17:16 33.78173 -111.13991 37023 ft 483 kts 63°
2026-05-06 17:17 33.81668 -111.05559 37026 ft 484 kts 63°
2026-05-06 17:17 33.84674 -110.98289 37022 ft 486 kts 63°
2026-05-06 17:18 33.87174 -110.92235 37024 ft 486 kts 63°
2026-05-06 17:18 33.90182 -110.84936 37024 ft 487 kts 63°
2026-05-06 17:19 33.93190 -110.77618 37007 ft 488 kts 63°
2026-05-06 17:19 33.96200 -110.70276 37050 ft 488 kts 63°
2026-05-06 17:20 33.99208 -110.62928 37015 ft 488 kts 63°
2026-05-06 17:20 34.02205 -110.55588 37007 ft 487 kts 63°
2026-05-06 17:21 34.05160 -110.48339 37011 ft 484 kts 63°
2026-05-06 17:21 34.08118 -110.41065 37009 ft 482 kts 63°
2026-05-06 17:22 34.11064 -110.33805 37042 ft 481 kts 63°
2026-05-06 17:22 34.14000 -110.26555 37083 ft 480 kts 63°
2026-05-06 17:23 34.16928 -110.19308 37122 ft 480 kts 63°
2026-05-06 17:23 34.19851 -110.12058 37169 ft 481 kts 63°
2026-05-06 17:24 34.22800 -110.04729 37197 ft 489 kts 63°
2026-05-06 17:24 34.25792 -109.97278 37188 ft 494 kts 63°
2026-05-06 17:25 34.28791 -109.89791 37180 ft 495 kts 63°
2026-05-06 17:25 34.31768 -109.82341 37136 ft 495 kts 64°
2026-05-06 17:26 34.34759 -109.74841 37075 ft 495 kts 64°
2026-05-06 17:26 34.37749 -109.67325 36986 ft 495 kts 64°
2026-05-06 17:27 34.40733 -109.59809 36977 ft 495 kts 64°
2026-05-06 17:27 34.43712 -109.52286 36984 ft 495 kts 64°
2026-05-06 17:28 34.46676 -109.44787 37140 ft 496 kts 64°
2026-05-06 17:28 34.49651 -109.37241 37126 ft 496 kts 64°
2026-05-06 17:29 34.52625 -109.29682 37134 ft 497 kts 64°
2026-05-06 17:29 34.55598 -109.22109 37104 ft 497 kts 64°
2026-05-06 17:30 34.58549 -109.14573 37068 ft 497 kts 64°
2026-05-06 17:30 34.61519 -109.06971 37023 ft 499 kts 64°
2026-05-06 17:31 34.64492 -108.99345 37002 ft 500 kts 64°
2026-05-06 17:31 34.67472 -108.91682 36995 ft 502 kts 64°
2026-05-06 17:32 34.70435 -108.84044 36993 ft 503 kts 64°
2026-05-06 17:32 34.73429 -108.76310 36998 ft 504 kts 64°
2026-05-06 17:33 34.76419 -108.68568 36993 ft 506 kts 64°
2026-05-06 17:33 34.79389 -108.60860 37012 ft 507 kts 64°
2026-05-06 17:34 34.82372 -108.53099 36978 ft 502 kts 64°
2026-05-06 17:34 34.85296 -108.45471 36985 ft 495 kts 64°
2026-05-06 17:35 34.88216 -108.37841 36977 ft 498 kts 64°
2026-05-06 17:35 34.91143 -108.30172 36993 ft 500 kts 64°
2026-05-06 17:36 34.95553 -108.18584 36986 ft 504 kts 64°
2026-05-06 17:36 34.98507 -108.10797 36977 ft 506 kts 64°
2026-05-06 17:37 35.01448 -108.03027 36975 ft 508 kts 64°
2026-05-06 17:37 35.04408 -107.95189 36965 ft 509 kts 65°
2026-05-06 17:38 35.07363 -107.87342 36953 ft 508 kts 64°
2026-05-06 17:38 35.10310 -107.79500 36955 ft 507 kts 65°
2026-05-06 17:39 35.13252 -107.71650 36950 ft 506 kts 65°
2026-05-06 17:39 35.16179 -107.63823 36935 ft 506 kts 65°
2026-05-06 17:40 35.19099 -107.55994 36923 ft 505 kts 65°
2026-05-06 17:40 35.21989 -107.48226 36980 ft 504 kts 64°
2026-05-06 17:41 35.24889 -107.40413 36931 ft 503 kts 65°
2026-05-06 17:41 35.27773 -107.32627 36945 ft 501 kts 65°
2026-05-06 17:42 35.30628 -107.24898 36933 ft 500 kts 65°
2026-05-06 17:42 35.33488 -107.17135 36924 ft 500 kts 65°
2026-05-06 17:43 35.36340 -107.09378 36926 ft 499 kts 65°
2026-05-06 17:43 35.39188 -107.01612 36937 ft 501 kts 65°
2026-05-06 17:44 35.42064 -106.93750 36945 ft 510 kts 65°
2026-05-06 17:44 35.44976 -106.85770 36946 ft 514 kts 65°
2026-05-06 17:45 35.47878 -106.77794 36935 ft 516 kts 65°
2026-05-06 17:45 35.50779 -106.69801 36945 ft 507 kts 65°
2026-05-06 17:46 35.53646 -106.61884 36935 ft 507 kts 65°
2026-05-06 17:46 35.56509 -106.53955 36941 ft 508 kts 65°
2026-05-06 17:47 35.59377 -106.45997 36970 ft 510 kts 65°
2026-05-06 17:47 35.62232 -106.38055 37022 ft 511 kts 65°
2026-05-06 17:48 35.65101 -106.30052 37029 ft 512 kts 65°
2026-05-06 17:48 35.67970 -106.22026 37053 ft 512 kts 65°
2026-05-06 17:49 35.70834 -106.13994 37067 ft 511 kts 65°
2026-05-06 17:49 35.73666 -106.06034 37053 ft 510 kts 65°
2026-05-06 17:50 35.76501 -105.98042 37029 ft 509 kts 65°
2026-05-06 17:50 35.79334 -105.90035 36925 ft 509 kts 66°
2026-05-06 17:51 35.82161 -105.82029 36927 ft 511 kts 66°
2026-05-06 17:51 35.84996 -105.73973 36920 ft 512 kts 66°
2026-05-06 17:52 35.87819 -105.65936 36922 ft 514 kts 66°
2026-05-06 17:52 35.90662 -105.57816 36911 ft 516 kts 66°
2026-05-06 17:53 35.93509 -105.49666 36880 ft 518 kts 66°
2026-05-06 17:53 35.96358 -105.41485 36897 ft 518 kts 66°
2026-05-06 17:54 35.99188 -105.33341 36874 ft 520 kts 66°
2026-05-06 17:54 36.02040 -105.25110 36873 ft 521 kts 66°
2026-05-06 17:55 36.04890 -105.16862 36855 ft 520 kts 66°
2026-05-06 17:55 36.07721 -105.08647 36846 ft 518 kts 66°
2026-05-06 17:56 36.10517 -105.00510 36860 ft 516 kts 66°
2026-05-06 17:56 36.13309 -104.92365 36862 ft 513 kts 66°
2026-05-06 17:57 36.16094 -104.84221 36866 ft 512 kts 66°
2026-05-06 17:57 36.18858 -104.76112 36868 ft 511 kts 66°
2026-05-06 17:58 36.21619 -104.67994 36876 ft 512 kts 67°
2026-05-06 17:58 36.24377 -104.59860 36891 ft 513 kts 67°
2026-05-06 17:59 36.27128 -104.51726 36882 ft 515 kts 67°
2026-05-06 17:59 36.29894 -104.43526 36900 ft 516 kts 67°
2026-05-06 18:00 36.32659 -104.35306 36917 ft 517 kts 67°
2026-05-06 18:00 36.35412 -104.27097 36919 ft 518 kts 67°
2026-05-06 18:01 36.38181 -104.18819 36942 ft 520 kts 67°
2026-05-06 18:01 36.40950 -104.10518 36963 ft 520 kts 67°
2026-05-06 18:02 36.43707 -104.02230 36991 ft 518 kts 67°
2026-05-06 18:02 36.46435 -103.94008 36990 ft 516 kts 67°
2026-05-06 18:03 36.49156 -103.85781 37012 ft 513 kts 67°
2026-05-06 18:03 36.51862 -103.77577 37033 ft 512 kts 67°
2026-05-06 18:04 36.54558 -103.69383 37046 ft 512 kts 67°
2026-05-06 18:04 36.57236 -103.61220 37058 ft 513 kts 67°
2026-05-06 18:05 36.59934 -103.52974 37068 ft 515 kts 67°
2026-05-06 18:05 36.62639 -103.44680 37045 ft 518 kts 68°
2026-05-06 18:06 36.65353 -103.36338 37069 ft 521 kts 68°
2026-05-06 18:06 36.68077 -103.27939 37069 ft 524 kts 68°
2026-05-06 18:07 36.70345 -103.20928 37076 ft 526 kts 68°
2026-05-06 18:07 36.73086 -103.12433 37067 ft 528 kts 68°
2026-05-06 18:08 36.76485 -103.02640 37132 ft 528 kts 64°
2026-05-06 18:08 36.79097 -102.95774 37065 ft 517 kts 63°
2026-05-06 18:09 36.82160 -102.87760 37083 ft 515 kts 64°
2026-05-06 18:09 36.85215 -102.79635 37080 ft 518 kts 64°
2026-05-06 18:10 36.88254 -102.71458 37072 ft 520 kts 64°
2026-05-06 18:10 36.91294 -102.63236 37091 ft 522 kts 65°
2026-05-06 18:11 36.94344 -102.54968 37088 ft 525 kts 65°
2026-05-06 18:11 36.97414 -102.46631 37088 ft 527 kts 65°
2026-05-06 18:12 37.00465 -102.38326 37066 ft 529 kts 65°
2026-05-06 18:12 37.03533 -102.29951 37086 ft 530 kts 65°
2026-05-06 18:13 37.06601 -102.21553 37090 ft 531 kts 65°
2026-05-06 18:13 37.09669 -102.13133 37205 ft 531 kts 65°
2026-05-06 18:14 37.12697 -102.04798 37157 ft 519 kts 65°
2026-05-06 18:14 37.15683 -101.96556 37182 ft 520 kts 65°
2026-05-06 18:15 37.18683 -101.88254 37183 ft 524 kts 65°
2026-05-06 18:15 37.21681 -101.79937 37166 ft 528 kts 65°
2026-05-06 18:16 37.24712 -101.71503 37161 ft 531 kts 65°
2026-05-06 18:16 37.27752 -101.63019 37127 ft 532 kts 65°
2026-05-06 18:17 37.30770 -101.54575 37161 ft 534 kts 66°
2026-05-06 18:17 37.33809 -101.46047 37165 ft 535 kts 66°
2026-05-06 18:18 37.36850 -101.37490 37174 ft 536 kts 66°
2026-05-06 18:18 37.39884 -101.28927 37163 ft 536 kts 66°
2026-05-06 18:19 37.42914 -101.20354 37231 ft 536 kts 66°
2026-05-06 18:19 37.45923 -101.11814 37180 ft 535 kts 66°
2026-05-06 18:20 37.48934 -101.03244 37166 ft 533 kts 66°
2026-05-06 18:20 37.51919 -100.94724 37185 ft 530 kts 66°
2026-05-06 18:21 37.54887 -100.86228 37176 ft 528 kts 66°
2026-05-06 18:21 37.57820 -100.77808 37176 ft 526 kts 66°
2026-05-06 18:22 37.60754 -100.69362 37189 ft 524 kts 66°
2026-05-06 18:22 37.63674 -100.60930 37199 ft 523 kts 66°
2026-05-06 18:23 37.66568 -100.52553 37187 ft 528 kts 66°
2026-05-06 18:23 37.69525 -100.43966 37209 ft 538 kts 66°
2026-05-06 18:24 37.72526 -100.35230 37223 ft 542 kts 66°
2026-05-06 18:24 37.75491 -100.26569 37204 ft 532 kts 66°
2026-05-06 18:25 37.78384 -100.18094 37191 ft 523 kts 66°
2026-05-06 18:25 37.81290 -100.09558 37221 ft 534 kts 66°
2026-05-06 18:26 37.84241 -100.00864 37207 ft 539 kts 67°
2026-05-06 18:26 37.87181 -99.92178 37203 ft 541 kts 67°
2026-05-06 18:27 37.90132 -99.83430 37189 ft 535 kts 67°
2026-05-06 18:27 37.93041 -99.74784 37211 ft 535 kts 67°
2026-05-06 18:28 37.95959 -99.66082 37221 ft 538 kts 67°
2026-05-06 18:28 37.98895 -99.57303 37227 ft 542 kts 67°
2026-05-06 18:29 38.01836 -99.48482 37221 ft 544 kts 67°
2026-05-06 18:29 38.04785 -99.39609 37205 ft 546 kts 67°
2026-05-06 18:30 38.07732 -99.30714 37209 ft 547 kts 67°
2026-05-06 18:30 38.10678 -99.21796 37206 ft 548 kts 67°
2026-05-06 18:31 38.13604 -99.12912 37204 ft 548 kts 67°
2026-05-06 18:31 38.16539 -99.03970 37191 ft 548 kts 67°
2026-05-06 18:32 38.19471 -98.95011 37203 ft 547 kts 67°
2026-05-06 18:32 38.22364 -98.86143 37219 ft 547 kts 67°
2026-05-06 18:33 38.25277 -98.77189 37217 ft 547 kts 67°
2026-05-06 18:33 38.28179 -98.68235 37186 ft 547 kts 67°
2026-05-06 18:34 38.31079 -98.59262 37210 ft 547 kts 68°
2026-05-06 18:34 38.33956 -98.50334 37215 ft 549 kts 68°
2026-05-06 18:35 38.36851 -98.41319 37220 ft 550 kts 67°
2026-05-06 18:35 38.39747 -98.32272 37185 ft 550 kts 67°
2026-05-06 18:36 38.42631 -98.23231 37189 ft 549 kts 68°
2026-05-06 18:36 38.45479 -98.14278 37192 ft 548 kts 68°
2026-05-06 18:37 38.47874 -98.06726 37195 ft 547 kts 68°
2026-05-06 18:37 38.51199 -97.96273 37183 ft 546 kts 67°
2026-05-06 18:38 38.54162 -97.87334 37187 ft 546 kts 66°
2026-05-06 18:38 38.57151 -97.78403 37199 ft 547 kts 66°
2026-05-06 18:39 38.60132 -97.69421 37199 ft 549 kts 66°
2026-05-06 18:40 38.64577 -97.55896 37177 ft 551 kts 66°
2026-05-06 18:40 38.67522 -97.46890 37196 ft 553 kts 66°
2026-05-06 18:41 38.70486 -97.37803 37198 ft 553 kts 66°
2026-05-06 18:41 38.73449 -97.28693 37185 ft 553 kts 66°
2026-05-06 18:42 38.76397 -97.19599 37184 ft 552 kts 66°
2026-05-06 18:42 38.79313 -97.10576 37187 ft 550 kts 66°
2026-05-06 18:43 38.82230 -97.01517 37180 ft 549 kts 67°
2026-05-06 18:43 38.85135 -96.92472 37181 ft 547 kts 67°
2026-05-06 18:44 38.88024 -96.83443 37182 ft 546 kts 67°
2026-05-06 18:44 38.90900 -96.74426 37183 ft 546 kts 67°
2026-05-06 18:45 38.93772 -96.65394 37225 ft 546 kts 67°
2026-05-06 18:45 38.96642 -96.56339 37186 ft 547 kts 67°
2026-05-06 18:46 38.99507 -96.47270 37192 ft 547 kts 67°
2026-05-06 18:46 39.02347 -96.38252 37180 ft 548 kts 67°
2026-05-06 18:47 39.05196 -96.29172 37181 ft 547 kts 67°
2026-05-06 18:47 39.08043 -96.20074 37175 ft 547 kts 67°
2026-05-06 18:48 39.10878 -96.10980 37175 ft 547 kts 67°
2026-05-06 18:48 39.13690 -96.01933 37180 ft 547 kts 67°
2026-05-06 18:49 39.16517 -95.92807 37174 ft 548 kts 67°
2026-05-06 18:49 39.19340 -95.83662 37178 ft 549 kts 67°
2026-05-06 18:50 39.22167 -95.74474 37227 ft 551 kts 67°
2026-05-06 18:50 39.24971 -95.65331 37160 ft 551 kts 67°
2026-05-06 18:51 39.27780 -95.56139 37170 ft 550 kts 67°
2026-05-06 18:51 39.30576 -95.46961 37164 ft 549 kts 68°
2026-05-06 18:52 39.33361 -95.37787 37166 ft 547 kts 68°
2026-05-06 18:52 39.36136 -95.28613 37154 ft 547 kts 68°
2026-05-06 18:53 39.38881 -95.19511 37165 ft 547 kts 68°
2026-05-06 18:53 39.41639 -95.10333 37162 ft 548 kts 68°
2026-05-06 18:54 39.44393 -95.01139 37160 ft 548 kts 68°
2026-05-06 18:54 39.47144 -94.91923 37143 ft 549 kts 68°
2026-05-06 18:55 39.49895 -94.82674 37181 ft 551 kts 68°
2026-05-06 18:55 39.52627 -94.73453 37165 ft 551 kts 68°
2026-05-06 18:56 39.55371 -94.64166 37147 ft 551 kts 68°
2026-05-06 18:56 39.58099 -94.54895 37130 ft 549 kts 68°
2026-05-06 18:57 39.60799 -94.45691 37175 ft 548 kts 68°
2026-05-06 18:57 39.63504 -94.36439 37192 ft 548 kts 68°
2026-05-06 18:58 39.65750 -94.28729 37197 ft 549 kts 68°
2026-05-06 18:58 39.68889 -94.17920 37194 ft 550 kts 68°
2026-05-06 18:59 39.71148 -94.10112 37184 ft 552 kts 68°
2026-05-06 18:59 39.73847 -94.00755 37234 ft 553 kts 68°
2026-05-06 19:00 39.76523 -93.91442 37156 ft 555 kts 69°
2026-05-06 19:00 39.79214 -93.82044 37140 ft 553 kts 69°
2026-05-06 19:01 39.81888 -93.72670 37133 ft 550 kts 69°
2026-05-06 19:01 39.84539 -93.63344 37143 ft 548 kts 69°
2026-05-06 19:02 39.87159 -93.54094 37136 ft 547 kts 69°
2026-05-06 19:02 39.89785 -93.44792 37140 ft 546 kts 69°
2026-05-06 19:03 39.92399 -93.35498 37138 ft 546 kts 69°
2026-05-06 19:03 39.94990 -93.26250 37141 ft 546 kts 69°
2026-05-06 19:04 39.97585 -93.16956 37142 ft 546 kts 69°
2026-05-06 19:04 40.00178 -93.07634 37168 ft 547 kts 69°
2026-05-06 19:05 40.02770 -92.98286 37135 ft 548 kts 69°
2026-05-06 19:05 40.05353 -92.88932 37129 ft 547 kts 69°
2026-05-06 19:06 40.07910 -92.79639 37127 ft 547 kts 69°
2026-05-06 19:06 40.10474 -92.70288 37130 ft 546 kts 69°
2026-05-06 19:07 40.13028 -92.60940 37119 ft 547 kts 69°
2026-05-06 19:07 40.15274 -92.51443 37128 ft 548 kts 76°
2026-05-06 19:08 40.17106 -92.41760 37128 ft 549 kts 77°
2026-05-06 19:08 40.18926 -92.32060 37133 ft 550 kts 76°
2026-05-06 19:09 40.20821 -92.22345 37130 ft 551 kts 76°
2026-05-06 19:09 40.22732 -92.12680 37114 ft 552 kts 76°
2026-05-06 19:10 40.24647 -92.02939 37130 ft 553 kts 76°
2026-05-06 19:10 40.26548 -91.93194 37119 ft 552 kts 76°
2026-05-06 19:11 40.28438 -91.83444 37103 ft 551 kts 76°
2026-05-06 19:11 40.30314 -91.73726 37108 ft 549 kts 76°
2026-05-06 19:12 40.32157 -91.64126 37084 ft 539 kts 76°
2026-05-06 19:12 40.33056 -91.59427 37079 ft 526 kts 76°
2026-05-06 19:12 40.33935 -91.54825 37083 ft 513 kts 76°
2026-05-06 19:12 40.34789 -91.50347 37069 ft 500 kts 76°
2026-05-06 19:13 40.35624 -91.45953 37096 ft 495 kts 76°
2026-05-06 19:13 40.37771 -91.37262 37136 ft 507 kts 65°
2026-05-06 19:14 40.40645 -91.28679 37121 ft 519 kts 63°
2026-05-06 19:14 40.43495 -91.19950 37103 ft 519 kts 65°
2026-05-06 19:15 40.46193 -91.11255 37054 ft 511 kts 65°
2026-05-06 19:15 40.47530 -91.06932 37165 ft 511 kts 65°
2026-05-06 19:15 40.48869 -91.02600 37151 ft 513 kts 65°
2026-05-06 19:16 40.51534 -90.93905 37087 ft 517 kts 66°
2026-05-06 19:16 40.54207 -90.85131 37110 ft 517 kts 66°
2026-05-06 19:17 40.56871 -90.76360 37073 ft 514 kts 66°
2026-05-06 19:17 40.59511 -90.67650 37119 ft 510 kts 66°
2026-05-06 19:18 40.62111 -90.59046 37111 ft 508 kts 66°
2026-05-06 19:18 40.64714 -90.50406 37110 ft 508 kts 66°
2026-05-06 19:19 40.67315 -90.41741 37103 ft 509 kts 66°
2026-05-06 19:19 40.69915 -90.33053 37076 ft 511 kts 66°
2026-05-06 19:20 40.72516 -90.24327 37078 ft 512 kts 66°
2026-05-06 19:20 40.75116 -90.15559 37078 ft 514 kts 66°
2026-05-06 19:21 40.77722 -90.06745 37075 ft 516 kts 66°
2026-05-06 19:21 40.80319 -89.97932 37042 ft 518 kts 66°
2026-05-06 19:22 40.82927 -89.89052 37068 ft 519 kts 66°
2026-05-06 19:22 40.85533 -89.80151 37074 ft 520 kts 66°
2026-05-06 19:23 40.88418 -89.71407 37062 ft 516 kts 55°
2026-05-06 19:23 40.92108 -89.63376 37128 ft 514 kts 52°
2026-05-06 19:24 40.95790 -89.55357 37047 ft 504 kts 54°
2026-05-06 19:24 40.99303 -89.47357 37079 ft 504 kts 55°
2026-05-06 19:25 41.02824 -89.39302 37075 ft 507 kts 55°
2026-05-06 19:25 41.06372 -89.31187 37059 ft 510 kts 55°
2026-05-06 19:26 41.09903 -89.23085 37054 ft 511 kts 55°
2026-05-06 19:26 41.13461 -89.14898 37091 ft 509 kts 55°
2026-05-06 19:26 41.15209 -89.10863 36877 ft 502 kts 55°
2026-05-06 19:27 41.16954 -89.06835 36024 ft 507 kts 55°
2026-05-06 19:27 41.18743 -89.02714 34738 ft 525 kts 54°
2026-05-06 19:27 41.20610 -88.98410 33312 ft 546 kts 54°
2026-05-06 19:27 41.22434 -88.93944 32509 ft 549 kts 60°
2026-05-06 19:28 41.24004 -88.89460 32338 ft 534 kts 63°
2026-05-06 19:28 41.25493 -88.84998 31987 ft 523 kts 62°
2026-05-06 19:28 41.26991 -88.80608 31388 ft 520 kts 61°
2026-05-06 19:28 41.28519 -88.76251 30760 ft 519 kts 61°
2026-05-06 19:29 41.30047 -88.71917 30215 ft 516 kts 61°
2026-05-06 19:29 41.31559 -88.67624 29657 ft 510 kts 61°
2026-05-06 19:29 41.33046 -88.63385 29183 ft 501 kts 62°
2026-05-06 19:29 41.34507 -88.59208 28766 ft 492 kts 62°
2026-05-06 19:30 41.35936 -88.55114 28379 ft 482 kts 62°
2026-05-06 19:30 41.37359 -88.51112 27886 ft 474 kts 57°
2026-05-06 19:30 41.39170 -88.47531 27325 ft 459 kts 43°
2026-05-06 19:30 41.41346 -88.44518 26821 ft 442 kts 31°
2026-05-06 19:31 41.43754 -88.42106 26342 ft 425 kts 24°
2026-05-06 19:31 41.45936 -88.39453 25782 ft 441 kts 49°
2026-05-06 19:31 41.48756 -88.32237 24926 ft 430 kts 52°
2026-05-06 19:32 41.50493 -88.29048 24487 ft 419 kts 44°
2026-05-06 19:32 41.52290 -88.26005 24026 ft 417 kts 52°
2026-05-06 19:32 41.53813 -88.22728 23589 ft 413 kts 56°
2026-05-06 19:32 41.55262 -88.19453 23128 ft 407 kts 56°
2026-05-06 19:33 41.56697 -88.16196 22451 ft 408 kts 56°
2026-05-06 19:33 41.58133 -88.12947 21913 ft 404 kts 56°
2026-05-06 19:33 41.59576 -88.09760 21461 ft 398 kts 55°
2026-05-06 19:33 41.61017 -88.06637 20992 ft 391 kts 54°
2026-05-06 19:34 41.62443 -88.03563 20542 ft 386 kts 54°
2026-05-06 19:34 41.63836 -88.00553 20059 ft 383 kts 56°
2026-05-06 19:34 41.64791 -87.97297 19849 ft 372 kts 84°
2026-05-06 19:34 41.64692 -87.93964 19765 ft 348 kts 109°
2026-05-06 19:35 41.63861 -87.91056 19580 ft 324 kts 128°
2026-05-06 19:35 41.62542 -87.88647 18823 ft 322 kts 145°
2026-05-06 19:35 41.60756 -87.86795 17821 ft 325 kts 161°
2026-05-06 19:35 41.58696 -87.85697 17174 ft 312 kts 178°
2026-05-06 19:36 41.56616 -87.85415 16680 ft 292 kts 193°
2026-05-06 19:36 41.54675 -87.85890 16195 ft 276 kts 208°
2026-05-06 19:36 41.52959 -87.86924 15645 ft 268 kts 217°
2026-05-06 19:36 41.51427 -87.88290 15108 ft 262 kts 226°
2026-05-06 19:37 41.50228 -87.90022 14612 ft 255 kts 239°
2026-05-06 19:37 41.49265 -87.91991 14136 ft 253 kts 241°
2026-05-06 19:37 41.48330 -87.93975 13619 ft 252 kts 242°
2026-05-06 19:37 41.47703 -87.95315 13264 ft 252 kts 242°
2026-05-06 19:38 41.46480 -87.97928 12585 ft 250 kts 241°
2026-05-06 19:38 41.45561 -87.99890 12068 ft 250 kts 242°
2026-05-06 19:38 41.44640 -88.01857 11538 ft 250 kts 241°
2026-05-06 19:38 41.43711 -88.03832 11030 ft 251 kts 241°
2026-05-06 19:39 41.42786 -88.05799 10569 ft 250 kts 241°
2026-05-06 19:39 41.41863 -88.07760 10146 ft 249 kts 241°
2026-05-06 19:39 41.41163 -88.09843 9617 ft 246 kts 258°
2026-05-06 19:39 41.40994 -88.12099 9077 ft 246 kts 271°
2026-05-06 19:40 41.41152 -88.14364 8613 ft 245 kts 280°
2026-05-06 19:40 41.41596 -88.16563 8020 ft 250 kts 289°
2026-05-06 19:40 41.42356 -88.18673 7444 ft 255 kts 301°
2026-05-06 19:40 41.43455 -88.20520 6991 ft 255 kts 314°
2026-05-06 19:41 41.44845 -88.21945 6599 ft 257 kts 327°
2026-05-06 19:41 41.46493 -88.22887 6227 ft 259 kts 341°
2026-05-06 19:41 41.48260 -88.23257 6009 ft 255 kts 355°
2026-05-06 19:41 41.50017 -88.23063 5743 ft 253 kts
2026-05-06 19:42 41.51700 -88.22328 5478 ft 257 kts 20°
2026-05-06 19:42 41.53111 -88.20850 5191 ft 264 kts 50°
2026-05-06 19:42 41.54122 -88.18835 4953 ft 259 kts 54°
2026-05-06 19:42 41.55114 -88.16787 4716 ft 266 kts 54°
2026-05-06 19:43 41.56127 -88.14693 4454 ft 270 kts 54°
2026-05-06 19:43 41.57148 -88.12592 4244 ft 268 kts 54°
2026-05-06 19:43 41.58154 -88.10525 4128 ft 263 kts 54°
2026-05-06 19:43 41.59141 -88.08506 4056 ft 257 kts 54°
2026-05-06 19:44 41.60121 -88.06507 4030 ft 256 kts 54°
2026-05-06 19:44 41.61100 -88.04516 4033 ft 262 kts 54°
2026-05-06 19:44 41.62105 -88.02472 4028 ft 263 kts 54°
2026-05-06 19:44 41.63111 -88.00425 4022 ft 263 kts 54°
2026-05-06 19:45 41.64118 -87.98376 4014 ft 263 kts 54°
2026-05-06 19:45 41.65124 -87.96329 4015 ft 264 kts 54°
2026-05-06 19:45 41.66132 -87.94275 4018 ft 264 kts 54°
2026-05-06 19:45 41.67142 -87.92218 4037 ft 266 kts 54°
2026-05-06 19:46 41.68167 -87.90129 4003 ft 271 kts 54°
2026-05-06 19:46 41.69197 -87.88028 3978 ft 268 kts 54°
2026-05-06 19:46 41.70205 -87.85967 3979 ft 262 kts 54°
2026-05-06 19:46 41.71202 -87.83930 3989 ft 260 kts 54°
2026-05-06 19:47 41.72176 -87.81939 3990 ft 259 kts 54°
2026-05-06 19:47 41.73174 -87.79901 4012 ft 263 kts 54°
2026-05-06 19:47 41.74178 -87.77847 3993 ft 265 kts 54°
2026-05-06 19:47 41.75165 -87.75768 4001 ft 264 kts 60°
2026-05-06 19:48 41.75585 -87.73414 4015 ft 259 kts 87°
2026-05-06 19:48 41.75703 -87.71838 3990 ft 254 kts 74°
2026-05-06 19:48 41.76408 -87.69741 3959 ft 242 kts 57°
2026-05-06 19:48 41.77266 -87.67824 3857 ft 235 kts 56°
2026-05-06 19:49 41.78266 -87.66205 3776 ft 218 kts 36°
2026-05-06 19:49 41.79407 -87.64974 3690 ft 202 kts 36°
2026-05-06 19:49 41.80447 -87.63820 3526 ft 186 kts 33°
2026-05-06 19:49 41.81597 -87.63224 3139 ft 174 kts 354°
2026-05-06 19:50 41.82703 -87.63728 2724 ft 164 kts 317°
2026-05-06 19:50 41.83278 -87.64903 2518 ft 146 kts 282°
2026-05-06 19:50 41.83280 -87.66206 2422 ft 138 kts 263°
2026-05-06 19:50 41.83179 -87.67440 2445 ft 132 kts 263°
2026-05-06 19:51 41.82914 -87.68574 2420 ft 124 kts 247°
2026-05-06 19:51 41.82487 -87.69538 2423 ft 124 kts 241°
2026-05-06 19:51 41.81979 -87.70508 2201 ft 134 kts 235°
2026-05-06 19:51 41.81329 -87.71464 1880 ft 142 kts 227°
2026-05-06 19:52 41.80592 -87.72392 1458 ft 144 kts 229°
2026-05-06 19:52 41.79869 -87.73389 1491 ft 151 kts 228°
2026-05-06 19:52 41.79010 -87.74372 1812 ft 170 kts 221°
2026-05-06 19:52 41.78040 -87.75284 2218 ft 169 kts 217°
2026-05-06 19:53 41.77057 -87.76074 2646 ft 166 kts 216°
2026-05-06 19:53 41.75994 -87.76876 2691 ft 181 kts 213°
2026-05-06 19:53 41.74891 -87.77681 2596 ft 181 kts 211°
2026-05-06 19:53 41.73615 -87.78171 2557 ft 204 kts 186°
2026-05-06 19:54 41.72147 -87.77783 2401 ft 232 kts 159°
2026-05-06 19:54 41.70818 -87.76391 2264 ft 255 kts 127°
2026-05-06 19:54 41.70127 -87.74238 2329 ft 255 kts 96°
2026-05-06 19:54 41.70278 -87.71919 2484 ft 249 kts 70°
2026-05-06 19:55 41.71034 -87.69871 2591 ft 240 kts 57°
2026-05-06 19:55 41.71887 -87.67998 2699 ft 236 kts 55°
2026-05-06 19:55 41.72783 -87.66168 2684 ft 230 kts 53°
2026-05-06 19:55 41.73650 -87.64499 2663 ft 214 kts 50°
2026-05-06 19:56 41.74613 -87.63038 2628 ft 201 kts 40°
2026-05-06 19:56 41.75551 -87.61748 2721 ft 188 kts 43°
2026-05-06 19:56 41.76471 -87.60511 2571 ft 186 kts 40°
2026-05-06 19:56 41.77507 -87.59594 2515 ft 172 kts 14°
2026-05-06 19:57 41.78611 -87.59456 2594 ft 154 kts 343°
2026-05-06 19:57 41.79571 -87.59980 2676 ft 145 kts 323°
2026-05-06 19:57 41.80371 -87.60734 2775 ft 137 kts 316°
2026-05-06 19:57 41.81069 -87.61558 2777 ft 136 kts 312°
2026-05-06 19:58 41.81766 -87.62458 2594 ft 139 kts 311°
2026-05-06 19:58 41.82368 -87.63412 2544 ft 123 kts 294°
2026-05-06 19:58 41.82486 -87.64436 2604 ft 111 kts 270°
2026-05-06 19:58 41.82712 -87.65453 2849 ft 121 kts 296°
2026-05-06 19:59 41.83188 -87.66439 2935 ft 129 kts 298°
2026-05-06 19:59 41.83445 -87.67596 2760 ft 135 kts 265°
2026-05-06 19:59 41.83066 -87.68746 2515 ft 135 kts 239°
2026-05-06 19:59 41.82514 -87.69746 2056 ft 138 kts 236°
2026-05-06 20:00 41.81902 -87.70706 1740 ft 131 kts 231°
2026-05-06 20:00 41.81260 -87.71558 1509 ft 124 kts 228°
2026-05-06 20:00 41.80656 -87.72364 1324 ft 124 kts 231°
2026-05-06 20:00 41.80042 -87.73213 1072 ft 130 kts 230°
2026-05-06 20:01 41.79390 -87.74059 775 ft 130 kts 227°
2026-05-06 20:01 41.78773 -87.74841 632 ft 113 kts 225°
2026-05-06 20:01 41.78415 -87.75305 635 ft 43 kts 225°
2026-05-06 20:01 41.78244 -87.75502 636 ft 18 kts 205°
2026-05-06 20:02 41.78197 -87.75470 629 ft 9 kts 107°
2026-05-06 20:02 41.78200 -87.75386 637 ft 9 kts 67°
2026-05-06 20:02 41.78240 -87.75323 628 ft 9 kts 44°
2026-05-06 20:02 41.78286 -87.75265 629 ft 10 kts 43°
2026-05-06 20:03 41.78345 -87.75188 635 ft 13 kts 44°
2026-05-06 20:03 41.78408 -87.75107 631 ft 12 kts 44°
2026-05-06 20:03 41.78470 -87.75029 630 ft 12 kts 43°
2026-05-06 20:03 41.78531 -87.74953 628 ft 12 kts 42°
2026-05-06 20:04 41.78598 -87.74873 635 ft 13 kts 42°
2026-05-06 20:04 41.78648 -87.74789 628 ft 11 kts 101°
2026-05-06 20:04 41.78598 -87.74736 631 ft 8 kts 146°
2026-05-06 20:04 41.78591 -87.74694 631 ft 2 kts 41°
2026-05-06 20:05 41.78626 -87.74708 632 ft 10 kts 339°
2026-05-06 20:05 41.78651 -87.74754 630 ft 4 kts 230°
2026-05-06 20:05 41.78623 -87.74753 628 ft 5 kts 148°
2026-05-06 20:05 41.78610 -87.74714 637 ft 5 kts 88°
2026-05-06 20:06 41.78618 -87.74671 634 ft 5 kts 73°
2026-05-06 20:06 41.78626 -87.74643 632 ft 0 kts 70°